Location: Wildcat Hills Observatory
(41.6350°N, 103.6812°W)
Time: 00:22:04
(UTC-06:00)

Daily predictions for brighter satellites

Satellite Brightness Start Highest point End
(mag) Time Altitude Azimuth Time Altitude Azimuth Time Altitude Azimuth
Cosmos 2237 Rocket 3.4 00:09:10 39° NNW 00:09:10 39° NNW 00:13:23 10° NNE
Cosmos 2369 Rocket 4.2 00:06:40 10° N 00:10:37 19° NE 00:10:39 19° NE
Cosmos 2278 Rocket 4.5 00:43:09 10° NW 00:44:36 15° WNW 00:44:36 15° WNW
Mayak 1.7 00:47:51 10° N 00:48:32 14° N 00:48:32 14° N
CZ-2C R/B 4.3 01:01:31 10° N 01:04:45 28° NW 01:04:45 28° NW
CENTAUR R/B 3.8 00:59:05 10° NW 01:04:41 42° WNW 01:04:41 42° WNW
SL-16 R/B 3.8 01:17:28 28° NW 01:17:28 28° NW 01:21:19 10° N
USA 215 3.6 01:18:24 58° N 01:18:24 58° N 01:23:50 10° NW
Cosmos 1943 Rocket 3.5 01:30:07 10° NNW 01:33:47 35° NNE 01:33:47 35° NNE
Cosmos 2369 Rocket 3.7 01:49:35 10° NNW 01:52:24 30° NNW 01:52:24 30° NNW
Cosmos 1943 4.2 02:08:40 43° N 02:08:40 43° N 02:12:38 10° NNE
Cosmos 2098 Rocket 4.4 02:33:27 48° ENE 02:33:27 48° ENE 02:37:28 10° NNE
Cosmos 1125 Rocket 4.2 02:36:19 10° NNW 02:40:23 50° NNE 02:40:23 50° NNE
Lacrosse 5 4.3 02:39:03 10° NNW 02:42:49 20° NNE 02:46:33 10° ENE
SL-08 R/B 4.4 02:45:43 40° N 02:45:43 40° N 02:48:47 10° N
IRS-1C 4.5 02:46:11 10° NNE 02:50:56 61° ENE 02:50:56 61° ENE
NPP 3.9 02:46:13 10° NNE 02:50:48 65° NNE 02:50:48 65° NNE
USA 229 DEB 3.9 02:48:07 10° NNW 02:55:18 74° NE 03:02:37 10° SE
USA 229 3.9 02:48:13 10° NNW 02:55:24 74° NE 03:02:43 10° SE
BREEZE-M DEB (TANK) 4.3 02:56:05 51° NW 02:57:01 58° N 03:11:20 10° ENE
COSMOS 2406 3.2 03:07:20 72° ESE 03:07:20 72° ESE 03:12:57 10° NNE
Cosmos 2123 Rocket 3.8 03:04:09 10° N 03:10:27 90° W 03:11:00 76° S
Resurs 1-4 Rocket 2.2 03:05:22 10° NNE 03:10:36 69° E 03:10:36 69° E
Cosmos 1821 Rocket 4.1 03:11:01 59° WNW 03:11:01 59° WNW 03:16:59 10° N
Cosmos 1633 Rocket 4.5 03:12:29 10° N 03:16:28 33° ENE 03:17:29 30° ESE
ADEOS Rocket 3.2 03:11:18 10° N 03:16:10 47° WNW 03:16:10 47° WNW
Cosmos 1300 4.5 03:18:29 28° E 03:18:29 28° E 03:21:34 10° NNE
Cosmos 1943 Rocket 4.3 03:14:25 10° NW 03:15:15 13° NW 03:15:15 13° NW
SL-16 R/B 2.4 03:18:24 69° SSW 03:19:11 81° WSW 03:25:25 10° NNW
Cosmos 1934 Rocket 3.9 03:21:40 63° W 03:21:46 63° W 03:27:47 10° N
ARIANE 5 R/B 2.5 03:16:40 10° NNE 03:21:56 73° ESE 03:22:15 71° SE
Cosmos 1656 Rocket 4.3 03:17:10 10° NNW 03:21:13 43° WNW 03:21:13 43° WNW
CZ-2D R/B 1.9 03:22:55 10° NNE 03:28:18 84° WNW 03:28:34 80° SW
NOSS 3-1 (C) 4.4 03:21:22 10° NNW 03:28:53 66° NE 03:37:12 10° SE
SL-27 R/B 4.0 03:32:31 34° NE 03:32:31 34° NE 03:34:41 10° NNE
Cosmos 1605 Rocket 4.0 03:38:40 55° SW 03:39:54 68° W 03:46:18 10° N
Cosmos 2221 3.6 03:44:23 34° NW 03:44:23 34° NW 03:47:28 10° N
MOS 1 Rocket 3.1 03:42:25 10° N 03:46:36 65° WNW 03:46:36 65° WNW
IRS-1D 3.7 03:45:24 10° N 03:50:26 54° WNW 03:50:58 52° W
Cosmos 1666 Rocket 3.4 03:47:00 10° N 03:51:27 81° W 03:51:40 77° SW
Cosmos 773 Rocket 4.5 03:50:51 36° SSE 03:52:48 57° ESE 03:58:00 10° NNE
Cosmos 1805 Rocket 4.2 03:48:44 10° NNW 03:52:06 41° NW 03:52:06 41° NW
Cosmos 2082 Rocket 3.8 03:49:26 13° SSE 03:53:21 28° ESE 03:58:04 10° NE
Cosmos 1315 Rocket 2.9 03:50:45 10° NNW 03:54:15 62° NW 03:54:15 62° NW
Cosmos 1726 2.6 03:57:13 49° NNW 03:57:13 49° NNW 04:00:12 10° N
ADEOS II 3.6 03:52:42 10° NNE 03:57:25 33° E 04:02:05 10° SSE
Spot 4 Rocket 4.4 03:54:36 10° N 03:59:28 44° WNW 04:00:06 42° W
Tiangong 2 3.0 04:02:41 24° ESE 04:02:41 24° ESE 04:04:34 10° E
Cosmos 292 Rocket 3.9 04:02:20 49° W 04:02:52 52° WNW 04:07:36 10° N
Cosmos 1151 Rocket 3.9 04:05:00 21° SSE 04:07:31 45° E 04:11:36 10° NNE
ADEOS 3.8 04:02:51 10° N 04:07:54 50° WNW 04:09:06 42° WSW
BREEZE-M DEB (TANK) 3.6 04:05:19 13° WNW 04:10:05 41° N 04:12:15 10° ENE
Shenzhou-11 Module 2.8 04:15:35 42° SE 04:15:35 42° SE 04:18:07 10° E
Cosmos 1892 3.8 04:13:03 10° N 04:16:44 43° E 04:20:25 10° SSE
CZ-2D R/B 3.4 04:13:55 10° N 04:17:50 57° WNW 04:18:26 50° WSW
Cosmos 2100 Rocket 4.0 04:14:37 25° SSW 04:18:32 79° W 04:24:56 10° N
Cosmos 1802 Rocket 4.0 04:14:06 19° S 04:18:47 83° E 04:25:07 10° N
UNKNOWN OBJECT B 3.1 04:14:53 10° N 04:18:49 49° WNW 04:19:22 45° W
Okean O Rocket 3.4 04:15:54 10° NE 04:19:47 29° E 04:23:36 10° SSE
MOZ.5/SAFIR/RUBIN 5/SL-8 4.2 04:21:26 39° WSW 04:21:57 40° W 04:26:23 10° NNW
Cosmos 1656 4.3 04:16:49 10° NNW 04:22:28 58° ENE 04:28:04 10° SE
Sich 1 3.7 04:18:36 10° NNW 04:22:30 35° W 04:22:30 35° W
Cosmos 2369 3.9 04:17:09 10° NNW 04:22:49 75° ENE 04:28:27 10° SSE
Lacrosse 5 2.2 04:21:33 10° NW 04:26:37 67° NE 04:31:39 10° SE
In-Cosmos 22 Rocket 4.0 04:22:31 10° NNW 04:27:52 68° W 04:32:47 12° S
Hubble Space Telescope 3.0 04:29:18 13° S 04:29:18 13° S 04:30:37 10° SSE
USA 161 3.3 04:31:50 15° N 04:31:50 15° N 04:32:16 10° N
Meteor 2-10 4.3 04:28:53 28° SW 04:31:52 57° WNW 04:37:25 10° N
BREEZE-M DEB (TANK) 4.3 04:37:19 10° SSE 04:37:19 10° SSE 04:37:22 10° SSE
CZ-4B R/B 3.8 04:33:12 10° NNE 04:37:38 57° E 04:42:05 10° S
Meteor 1-27 4.2 04:33:19 13° S 04:38:30 86° ESE 04:44:08 10° N
Tsikada Rocket 4.5 04:32:28 10° N 04:38:46 64° E 04:45:05 10° SSE
Cosmos 2173 Rocket 4.1 04:37:18 20° SSW 04:41:39 57° W 04:47:56 10° N
Cosmos 1470 Rocket 3.7 04:39:48 10° NNW 04:44:00 50° W 04:47:14 16° SSW
ATLAS 2AS CENTAUR R/B 4.5 04:37:13 10° NNW 04:44:41 39° NE 04:51:40 10° ESE
OE (NEXTSAT) 4.4 04:44:22 32° WSW 04:45:54 78° NNW 04:49:30 10° ENE
Cosmos 1833 Rocket 2.8 04:42:52 14° SSW 04:47:43 78° ESE 04:53:23 10° NNE
Resurs 1-4 Rocket 3.8 04:46:42 10° NNW 04:49:53 16° WNW 04:51:41 14° W
NOSS 3-1 (A) 4.1 04:43:47 10° NW 04:51:22 61° WSW 04:59:40 10° SSE
Cosmos 1515 Rocket 4.0 04:50:19 22° SW 04:52:42 43° WNW 04:56:57 10° N
Cosmos 923 Rocket 4.0 04:49:14 17° SSW 04:53:13 71° WNW 04:58:29 10° NNE
Cosmos 1300 4.3 04:53:30 18° W 04:53:59 18° WNW 04:56:42 10° NNW
Cosmos 1633 Rocket 4.4 04:50:50 10° NW 04:54:00 20° W 04:54:31 19° W
Cosmos 2228 Rocket 3.9 04:54:30 22° WSW 04:56:36 33° WNW 05:00:38 10° NNW
BREEZE-M DEB (TANK) 3.5 04:54:30 10° WNW 04:58:12 81° NNE 05:09:24 10° ESE
ARIANE 5 R/B 4.4 04:57:25 10° NNW 05:00:25 16° WNW 05:02:35 12° W
SL-16 R/B 4.3 05:03:31 11° W 05:03:40 11° W 05:05:32 10° WNW
Cosmos 1980 Rocket 3.2 04:58:25 10° NNW 05:03:53 51° ENE 05:09:20 10° SE
Cosmos 1869 Rocket 4.0 05:01:33 10° N 05:06:01 67° E 05:10:26 10° SSE
CZ-2D R/B 4.1 05:05:33 10° NW 05:07:29 12° WNW 05:09:25 10° WNW
Cosmos 1455 2.3 05:06:17 11° SSW 05:09:43 53° W 05:13:25 10° N
Cosmos 1680 Rocket 3.6 05:06:22 11° SSW 05:11:27 64° WNW 05:16:46 10° NNE
Cosmos 2084 3.5 05:07:39 11° SSW 05:11:31 67° ESE 05:15:23 10° NE
Cosmos 2278 4.0 05:06:21 10° NW 05:11:42 45° WSW 05:17:01 10° S
IRS-1C Rocket 4.2 05:07:34 10° NNE 05:12:52 79° ESE 05:18:07 10° S
USA 234 4.4 05:09:37 10° ENE 05:15:37 37° SE 05:21:35 10° SSW
Timation 2 Rocket 4.4 05:10:55 10° S 05:16:47 63° ESE 05:22:52 10° NNE
Cosmos 2112 Rocket 4.1 05:13:27 10° SSW 05:18:43 65° WNW 05:24:03 10° NNE
Cosmos 1697 Rocket 2.7 05:13:10 10° NNW 05:18:49 73° WSW 05:24:27 10° SSE
Abrixas 4.4 05:20:20 11° SSW 05:20:20 11° SSW 05:20:51 10° SSW
Lacrosse 4 Rocket 4.1 05:20:54 10° SSE 05:24:08 20° ESE 05:27:25 10° ENE
PSLV R/B 3.9 05:20:31 10° N 05:24:42 47° WNW 05:28:49 10° SW
CZ-4B DEB 4.3 05:23:16 10° N 05:28:46 67° WNW 05:34:12 10° SSW
PSLV R/B 4.3 05:29:59 10° W 05:32:46 27° SSW 05:35:34 10° SE
Meteor PRIRODA 3.6 05:31:22 10° N 05:35:02 75° WNW 05:38:40 10° SSW
COSMOS 2487 3.9 05:33:51 10° WSW 05:36:39 22° WNW 05:39:29 10° N
Cosmos 2056 Rocket 3.7 05:31:27 10° NNW 05:36:52 83° ENE 05:42:18 10° SSE
ADEOS II 3.0 05:32:27 10° N 05:37:04 32° WNW 05:41:39 10° SW
Cosmos 2082 Rocket 2.7 05:31:55 10° SW 05:37:12 42° WNW 05:42:33 10° NNE
Cosmos 2233 Rocket 4.0 05:32:25 10° SSW 05:38:28 64° W 05:44:35 10° N
Tiangong 2 1.1 05:35:15 10° W 05:38:28 87° NNW 05:41:43 10° ENE
Cosmos 1869 3.6 05:41:21 10° SSW 05:45:10 46° WNW 05:49:02 10° N
ASTEX 1 4.1 05:40:59 10° NNE 05:45:50 61° E 05:50:39 10° S
